Flag for Germany Weather past 2 weeks in Giessen, Hesse, Germany

Now
50 °F

Overcast.


Feels Like: 49 °F
Forecast: 42 / 47 °F
Wind: 5 mph from Southwest

Location: Giessen

Current Time: Mar 29, 2015 at 5:16:33 AM

Latest Report: Mar 29, 2015 at 4:00 AM


Visibility: 14 mi

Pressure: 29.80 "Hg

Humidity: 91%

Dew point: 48 °F

Location of GiessenLocation

Historic Weather in Giessen — Graph

°F

Giessen temperature yesterday

Maximum temperature yesterday: 53 °F (at 1:00 PM)
Minimum temperature yesterday: 37 °F (at 7:00 AM)
Average temperature yesterday: 45 °F

Past Weeks' High & Low Weather Summary

 TemperatureHumidityPressure
High63 °F (Mar 18, 3:00 PM)100% (Mar 20, 7:00 AM)30.35 "Hg (Mar 20, 7:00 AM)
Low26 °F (Mar 23, 6:00 AM)35% (Mar 20, 5:00 PM)29.59 "Hg (Mar 25, 4:00 PM)
Average42 °F80%30.11 "Hg
* Reported Mar 14 3:00 AM — Mar 29 4:00 AM, Giessen, Weather by CustomWeather, © 2015

Note: Actual official high and low records may vary slightly from our data, if they occured in-between our weather recording intervals... More about our weather records

Advertising

Giessen weather history for previous 24 hours

 ConditionsComfort  
Time TempWeatherWind HumidityBarometerVisibility
4:00 AM
Sun, Mar 29
50 °FOvercast.5 mph91%29.80 "Hg14 mi
3:00 AM49 °FOvercast.7 mph94%29.80 "Hg8 mi
1:00 AM49 °FRain. Low clouds.6 mph96%29.85 "Hg2 mi
12:00 AM47 °FRain. Low clouds.3 mph92%29.88 "Hg2 mi
11:00 PM
Sat, Mar 28
48 °FOvercast.5 mph87%29.89 "Hg14 mi
10:00 PM47 °FOvercast.6 mph88%29.92 "Hg12 mi
9:00 PM46 °FOvercast.5 mph92%29.96 "Hg7 mi
8:00 PM46 °FDrizzle. Low clouds.6 mph89%29.97 "Hg6 mi
7:00 PM47 °FOvercast.8 mph82%29.97 "Hg11 mi
6:00 PM49 °FLow clouds.8 mph72%29.98 "Hg15 mi
5:00 PM49 °FLight freezing rain. Low clouds.7 mph72%30.00 "Hg8 mi
4:00 PM51 °FDrizzle. Overcast.9 mph56%30.00 "Hg12 mi
3:00 PM53 °FOvercast.8 mph49%30.02 "Hg12 mi
2:00 PM53 °FPartly sunny.9 mph45%30.03 "Hg13 mi
1:00 PM53 °FPassing clouds.8 mph45%30.08 "Hg14 mi
12:00 PM52 °FScattered clouds.8 mph50%30.10 "Hg19 mi
11:00 AM48 °FPartly sunny.6 mph56%30.14 "Hg25 mi
10:00 AM47 °FScattered clouds.5 mph62%30.17 "Hg17 mi
9:00 AM42 °FSunny.No wind75%30.19 "Hg9 mi
8:00 AM41 °FSunny.1 mph83%30.20 "Hg9 mi
7:00 AM37 °FSunny.1 mph93%30.22 "Hg9 mi
6:00 AM38 °FOvercast.1 mph85%30.22 "Hg12 mi
5:00 AM39 °FOvercast.2 mph85%30.23 "Hg11 mi
Weather by CustomWeather, © 2015

See weather overviewHow to use our weather pages